Weather History for Boonville, MO

Change the Weather History Date:

Sunday, March 31, 2013

  Actual Average Record
Temperature  
Mean Temperature 52 °F -  
Max Temperature 78 °F 59 °F 98 °F (2014)
Min Temperature 40 °F 37 °F 19 °F (1964)
Degree Days  
Heating Degree Days 12    
Growing Degree Days 2 (Base 50)    
Moisture  
Dew Point 41 °F    
Average Humidity 69    
Maximum Humidity 100    
Minimum Humidity 37    
Precipitation  
Precipitation 0.00 in - - ()
Sea Level Pressure  
Sea Level Pressure 29.92 in    
Wind  
Wind Speed 3 mph (NW)    
Max Wind Speed 15 mph    
Max Gust Speed 22 mph    
Visibility 6 miles    
Events Fog    
Averages and records for this station are not official NWS values.
T = Trace of Precipitation, MM = Missing Value Source: NWS Daily Summary

Daily Weather History Graph

Daily Weather History Graph

Search for Another Location

Airport:

Trip Planner

Search our weather history database for the weather conditions in past years. The results will help you decide how hot, cold, wet, or windy it might be!

Date:

Astronomy

Mar. 31, 2013 Rise Set
Actual Time 6:56 AM CDT 7:33 PM CDT
Civil Twilight 6:29 AM CDT 8:00 PM CDT
Nautical Twilight 5:57 AM CDT 8:32 PM CDT
Astronomical Twilight 5:25 AM CDT 9:04 PM CDT
Moon No Moon Rise 9:47 AM CDT (3/31)
Length of Visible Light 13h 30m
Length of Day
12h 37m
Waning Gibbous, 77% of the Moon is Illuminated
Mar 31
Waning Gibbous
Apr 2
Last Quarter
Apr 10
New
Apr 18
First Quarter
Apr 25
Full

Hourly Weather History & Observations

Time (CDT) Temp. Windchill Dew Point Humidity Pressure Visibility Wind Dir Wind Speed Gust Speed Precip Events Conditions
12:15 AM 46.6 °F - 46.6 °F 100% 29.92 in 0.2 mi Calm Calm - N/A Fog Fog
12:35 AM 45.1 °F - 45.1 °F 100% 29.92 in 0.2 mi Calm Calm - N/A Fog Fog
12:55 AM 45.3 °F - 45.3 °F 100% 29.91 in 0.2 mi Calm Calm - N/A Fog Fog
1:15 AM 43.5 °F - 43.5 °F 100% 29.91 in 0.2 mi Calm Calm - N/A Fog Fog
1:35 AM 42.6 °F - 42.6 °F 100% 29.92 in 0.2 mi Calm Calm - N/A Fog Fog
1:55 AM 42.1 °F 40.2 °F 42.1 °F 100% 29.92 in 0.2 mi SSW 3.5 mph - N/A Fog Fog
2:15 AM 41.2 °F - 41.4 °F 100% 29.92 in 0.2 mi Calm Calm - N/A Fog Fog
2:35 AM 42.3 °F - 42.4 °F 100% 29.91 in 0.2 mi Calm Calm - N/A Fog Fog
2:55 AM 41.2 °F - 41.5 °F 100% 29.91 in 0.2 mi Calm Calm - N/A Fog Fog
3:15 AM 40.8 °F - 41.0 °F 100% 29.91 in 0.2 mi Calm Calm - N/A Fog Fog
3:35 AM - - - N/A% 29.92 in 0.5 mi NNW 4.6 mph - N/A Fog Fog
3:55 AM 42.6 °F - 42.6 °F 100% 29.91 in 0.5 mi Calm Calm - N/A Fog Fog
4:15 AM 42.8 °F - 43.0 °F 100% 29.92 in 0.5 mi Calm Calm - N/A Fog Fog
4:35 AM 43.2 °F - 43.3 °F 100% 29.91 in 0.5 mi Calm Calm - N/A Fog Fog
4:55 AM - - - N/A% 29.91 in 0.5 mi Calm Calm - N/A Fog Fog
5:15 AM 43.7 °F - 43.9 °F 100% 29.91 in 0.2 mi Calm Calm - N/A Fog Fog
5:35 AM 43.7 °F - 43.7 °F 100% 29.91 in 0.2 mi Calm Calm - N/A Fog Fog
5:55 AM 43.7 °F - 43.7 °F 100% 29.92 in 0.2 mi Calm Calm - N/A Fog Fog
6:15 AM 43.7 °F - 43.7 °F 100% 29.92 in 0.2 mi Calm Calm - N/A Fog Fog
6:35 AM 43.7 °F - 43.7 °F 100% 29.92 in 0.2 mi Calm Calm - N/A Fog Fog
6:55 AM 44.1 °F - 44.1 °F 100% 29.93 in 0.2 mi Calm Calm - N/A Fog Fog
7:15 AM 44.6 °F - 44.8 °F 100% 29.94 in 0.2 mi Calm Calm - N/A Fog Fog
7:35 AM 44.8 °F 42.4 °F 45.0 °F 100% 29.95 in 0.2 mi West 4.6 mph - N/A Fog Fog
7:55 AM - - - N/A% 29.95 in 0.2 mi West 5.8 mph - N/A Fog Fog
8:15 AM 45.5 °F 43.2 °F 45.7 °F 100% 29.95 in 0.2 mi West 4.6 mph - N/A Fog Fog
8:35 AM 46.0 °F 43.9 °F 46.2 °F 100% 29.94 in 0.2 mi West 4.6 mph - N/A Fog Fog
8:55 AM 46.9 °F - 47.1 °F 100% 29.94 in 1.2 mi NW 5.8 mph - N/A   Overcast
9:15 AM 46.9 °F - 47.1 °F 100% 29.94 in 1.2 mi Calm Calm - N/A   Overcast
9:35 AM 46.9 °F - 47.1 °F 100% 29.93 in 2.0 mi WNW 4.6 mph - N/A   Overcast
9:55 AM 48.0 °F - 48.2 °F 100% 29.91 in 4.0 mi Calm Calm - N/A   Mostly Cloudy
10:15 AM 49.1 °F - 49.5 °F 100% 29.91 in 7.0 mi Calm Calm - N/A   Scattered Clouds
10:35 AM 52.0 °F - 50.4 °F 94% 29.91 in 10.0 mi WNW 5.8 mph - N/A   Clear
10:55 AM 54.7 °F - 48.2 °F 79% 29.91 in 10.0 mi WNW 8.1 mph - N/A   Clear
11:15 AM 55.9 °F - 46.4 °F 70% 29.91 in 10.0 mi West 5.8 mph - N/A   Clear
11:35 AM 57.6 °F - 46.0 °F 65% 29.92 in 10.0 mi West 4.6 mph - N/A   Clear
11:55 AM 58.8 °F - 45.9 °F 62% 29.91 in 10.0 mi WNW 6.9 mph - N/A   Clear
12:15 PM 60.1 °F - 43.0 °F 53% 29.91 in 10.0 mi West 6.9 mph - N/A   Clear
12:35 PM 61.2 °F - 42.1 °F 50% 29.91 in 10.0 mi West 4.6 mph - N/A   Clear
12:55 PM 62.1 °F - 39.4 °F 43% 29.91 in 10.0 mi WNW 10.4 mph - N/A   Clear
1:15 PM 62.6 °F - 39.6 °F 43% 29.92 in 10.0 mi WNW 8.1 mph 17.3 mph N/A   Clear
1:35 PM 63.3 °F - 39.4 °F 41% 29.92 in 10.0 mi WNW 10.4 mph 16.1 mph N/A   Clear
1:55 PM 63.7 °F - 38.7 °F 40% 29.91 in 10.0 mi WNW 9.2 mph 19.6 mph N/A   Clear
2:15 PM 64.2 °F - 39.0 °F 39% 29.91 in 10.0 mi WNW 8.1 mph 17.3 mph N/A   Scattered Clouds
2:35 PM 64.8 °F - 38.5 °F 38% 29.91 in 10.0 mi WNW 12.7 mph 18.4 mph N/A   Scattered Clouds
2:55 PM 64.2 °F - 37.6 °F 37% 29.90 in 10.0 mi West 12.7 mph 16.1 mph N/A   Scattered Clouds
3:15 PM 65.1 °F - 39.7 °F 39% 29.90 in 10.0 mi WNW 10.4 mph 17.3 mph N/A   Scattered Clouds
3:35 PM 63.7 °F - 41.5 °F 44% 29.89 in 10.0 mi WNW 9.2 mph - N/A   Mostly Cloudy
3:55 PM 64.8 °F - 42.3 °F 44% 29.89 in 10.0 mi WNW 10.4 mph - N/A   Mostly Cloudy
4:15 PM 63.5 °F - 42.4 °F 46% 29.89 in 10.0 mi NW 15.0 mph 18.4 mph N/A   Overcast
4:35 PM 64.6 °F - 41.9 °F 44% 29.89 in 10.0 mi NW 13.8 mph 19.6 mph N/A   Scattered Clouds
4:55 PM 64.2 °F - 41.0 °F 43% 29.89 in 10.0 mi WNW 15.0 mph 21.9 mph N/A   Scattered Clouds
5:15 PM 64.6 °F - 39.4 °F 40% 29.89 in 10.0 mi NW 15.0 mph 20.7 mph N/A   Scattered Clouds
5:35 PM 63.0 °F - 40.1 °F 43% 29.90 in 10.0 mi NNW 15.0 mph 21.9 mph N/A   Clear
5:55 PM 61.2 °F - 39.7 °F 45% 29.91 in 10.0 mi NW 11.5 mph 17.3 mph N/A   Scattered Clouds
6:15 PM 61.7 °F - 37.2 °F 40% 29.91 in 10.0 mi NW 13.8 mph 18.4 mph N/A   Scattered Clouds
6:35 PM 61.0 °F - 34.2 °F 37% 29.91 in 10.0 mi NNW 13.8 mph 19.6 mph N/A   Scattered Clouds
6:55 PM 59.7 °F - 33.1 °F 37% 29.92 in 10.0 mi NNW 9.2 mph - N/A   Clear
7:15 PM 58.5 °F - 34.3 °F 40% 29.92 in 10.0 mi NNW 6.9 mph - N/A   Clear
7:35 PM 57.0 °F - 34.7 °F 43% 29.93 in 10.0 mi NNW 6.9 mph - N/A   Clear
7:55 PM 55.6 °F - 34.7 °F 45% 29.93 in 10.0 mi NW 4.6 mph - N/A   Clear
8:15 PM 54.7 °F - 34.5 °F 47% 29.93 in 10.0 mi NNW 5.8 mph - N/A   Clear
8:35 PM 53.1 °F - 35.1 °F 50% 29.94 in 10.0 mi WNW 6.9 mph - N/A   Clear
8:55 PM 53.1 °F - 34.3 °F 49% 29.95 in 10.0 mi NNW 4.6 mph - N/A   Clear
9:15 PM 53.6 °F - 33.3 °F 46% 29.95 in 10.0 mi NNW 3.5 mph - N/A   Clear
9:35 PM 52.7 °F - 32.9 °F 47% 29.96 in 10.0 mi NNW 3.5 mph - N/A   Clear
9:55 PM 52.7 °F - 32.0 °F 45% 29.96 in 10.0 mi Calm Calm - N/A   Clear
10:15 PM 52.0 °F - 31.5 °F 46% 29.96 in 10.0 mi Calm Calm - N/A   Clear
10:35 PM 49.8 °F - 31.5 °F 49% 29.96 in 10.0 mi Calm Calm - N/A   Clear
10:55 PM 48.2 °F - 31.5 °F 52% 29.96 in 10.0 mi North 4.6 mph - N/A   Clear
11:15 PM 47.8 °F - 30.0 °F 50% 29.96 in 10.0 mi NNW 5.8 mph - N/A   Clear
11:55 PM 46.9 °F - 28.4 °F 49% 29.96 in 10.0 mi NNE 6.9 mph - N/A   Clear